Time,TemperatureF,DewpointF,PressureIn,WindDirection,WindDirectionDegrees,WindSpeedMPH,WindSpeedGustMPH,Humidity,HourlyPrecipIn,Conditions,Clouds,dailyrainin,SoftwareType,DateUTC
2013-07-23 00:00:00,75.3,64.0,29.78,NE,45,6.0,6.0,68,0.00,,,0.00,Wunderground v.1.15,2013-07-23 05:00:00,
2013-07-23 00:15:00,74.8,63.9,29.78,ENE,76,4.0,4.0,69,0.00,,,0.00,Wunderground v.1.15,2013-07-23 05:15:00,
2013-07-23 00:20:00,74.7,63.9,29.78,ENE,58,3.0,4.0,69,0.00,,,0.00,Wunderground v.1.15,2013-07-23 05:20:00,
2013-07-23 00:25:00,74.5,63.7,29.79,ENE,68,2.0,2.0,69,0.00,,,0.00,Wunderground v.1.15,2013-07-23 05:25:00,
2013-07-23 00:30:00,74.2,63.8,29.78,NE,39,2.0,3.0,70,0.00,,,0.00,Wunderground v.1.15,2013-07-23 05:30:00,
2013-07-23 00:35:00,74.4,64.0,29.78,NE,49,4.0,6.0,70,0.00,,,0.00,Wunderground v.1.15,2013-07-23 05:35:00,
2013-07-23 00:45:00,73.7,64.1,29.77,ENE,68,4.0,6.0,72,0.00,,,0.00,Wunderground v.1.15,2013-07-23 05:45:00,
2013-07-23 00:55:00,73.3,64.1,29.77,ENE,57,4.0,5.0,73,0.00,,,0.00,Wunderground v.1.15,2013-07-23 05:55:00,
2013-07-23 01:00:00,73.1,63.9,29.77,ENE,66,4.0,4.0,73,0.00,,,0.00,Wunderground v.1.15,2013-07-23 06:00:00,
2013-07-23 01:10:00,72.8,64.0,29.77,North,10,2.0,4.0,74,0.00,,,0.00,Wunderground v.1.15,2013-07-23 06:10:00,
2013-07-23 01:20:00,72.6,63.8,29.77,NNE,30,4.0,4.0,74,0.00,,,0.00,Wunderground v.1.15,2013-07-23 06:20:00,
2013-07-23 01:30:00,72.4,64.0,29.77,NNE,12,3.0,4.0,75,0.00,,,0.00,Wunderground v.1.15,2013-07-23 06:30:00,
2013-07-23 01:40:00,72.0,64.0,29.78,North,360,3.0,3.0,76,0.00,,,0.00,Wunderground v.1.15,2013-07-23 06:40:00,
2013-07-23 01:50:00,71.5,64.3,29.78,NNW,342,2.0,2.0,78,0.00,,,0.00,Wunderground v.1.15,2013-07-23 06:50:00,
2013-07-23 01:55:00,71.1,63.9,29.77,NNE,22,2.0,2.0,78,0.00,,,0.00,Wunderground v.1.15,2013-07-23 06:55:00,
2013-07-23 02:00:00,70.9,64.1,29.77,North,352,2.0,2.0,79,0.00,,,0.00,Wunderground v.1.15,2013-07-23 07:00:00,
2013-07-23 02:10:00,70.7,63.9,29.77,North,352,3.0,3.0,79,0.00,,,0.00,Wunderground v.1.15,2013-07-23 07:10:00,
2013-07-23 02:20:00,70.5,63.7,29.76,NNE,20,3.0,4.0,79,0.00,,,0.00,Wunderground v.1.15,2013-07-23 07:20:00,
2013-07-23 02:30:00,69.9,63.8,29.77,NW,323,2.0,2.0,81,0.00,,,0.00,Wunderground v.1.15,2013-07-23 07:30:00,
2013-07-23 02:40:00,69.1,63.7,29.77,NNW,335,1.0,2.0,83,0.00,,,0.00,Wunderground v.1.15,2013-07-23 07:40:00,
2013-07-23 02:45:00,68.7,63.7,29.77,NNW,335,1.0,2.0,84,0.00,,,0.00,Wunderground v.1.15,2013-07-23 07:45:00,
2013-07-23 02:55:00,68.1,63.4,29.77,NNW,338,0.0,1.0,85,0.00,,,0.00,Wunderground v.1.15,2013-07-23 07:55:00,
2013-07-23 03:00:00,67.8,63.5,29.77,NNW,338,0.0,0.0,86,0.00,,,0.00,Wunderground v.1.15,2013-07-23 08:00:00,
2013-07-23 03:10:00,67.8,63.5,29.77,North,350,1.0,2.0,86,0.00,,,0.00,Wunderground v.1.15,2013-07-23 08:10:00,
2013-07-23 03:20:00,68.1,63.4,29.77,North,6,3.0,3.0,85,0.00,,,0.00,Wunderground v.1.15,2013-07-23 08:20:00,
2013-07-23 03:30:00,68.1,63.4,29.78,NW,322,2.0,2.0,85,0.00,,,0.00,Wunderground v.1.15,2013-07-23 08:30:00,
2013-07-23 03:40:00,67.8,63.1,29.78,NW,315,0.0,0.0,85,0.00,,,0.00,Wunderground v.1.15,2013-07-23 08:40:00,
2013-07-23 03:50:00,67.3,63.0,29.78,NW,309,0.0,1.0,86,0.00,,,0.00,Wunderground v.1.15,2013-07-23 08:50:00,
2013-07-23 04:00:00,66.7,63.0,29.78,North,349,1.0,1.0,88,0.00,,,0.00,Wunderground v.1.15,2013-07-23 09:00:00,
2013-07-23 04:10:00,66.6,62.9,29.78,North,10,2.0,3.0,88,0.00,,,0.00,Wunderground v.1.15,2013-07-23 09:10:00,
2013-07-23 04:20:00,67.1,63.1,29.79,NNE,24,4.0,4.0,87,0.00,,,0.00,Wunderground v.1.15,2013-07-23 09:20:00,
2013-07-23 04:30:00,67.5,63.5,29.80,NNE,13,6.0,6.0,87,0.00,,,0.00,Wunderground v.1.15,2013-07-23 09:30:00,
2013-07-23 04:40:00,67.8,63.5,29.79,NNE,25,8.0,8.0,86,0.00,,,0.00,Wunderground v.1.15,2013-07-23 09:40:00,
2013-07-23 04:50:00,68.2,63.9,29.80,North,10,11.0,11.0,86,0.00,,,0.00,Wunderground v.1.15,2013-07-23 09:50:00,
2013-07-23 05:00:00,68.2,63.9,29.80,NNE,15,10.0,16.0,86,0.00,,,0.00,Wunderground v.1.15,2013-07-23 10:00:00,
2013-07-23 05:10:00,68.2,63.9,29.81,NNE,30,11.0,11.0,86,0.00,,,0.00,Wunderground v.1.15,2013-07-23 10:10:00,
2013-07-23 05:15:00,68.3,63.9,29.81,North,354,11.0,15.0,86,0.00,,,0.00,Wunderground v.1.15,2013-07-23 10:15:00,
2013-07-23 05:25:00,68.3,63.9,29.82,NNE,22,14.0,14.0,86,0.00,,,0.00,Wunderground v.1.15,2013-07-23 10:25:00,
2013-07-23 05:35:00,68.3,63.6,29.86,North,352,14.0,14.0,85,0.00,,,0.00,Wunderground v.1.15,2013-07-23 10:35:00,
2013-07-23 05:45:00,68.2,63.5,29.87,North,354,13.0,14.0,85,0.00,,,0.00,Wunderground v.1.15,2013-07-23 10:45:00,
2013-07-23 05:55:00,68.2,63.2,29.88,NNW,343,12.0,13.0,84,0.00,,,0.00,Wunderground v.1.15,2013-07-23 10:55:00,
2013-07-23 06:00:00,68.1,63.1,29.88,NNE,20,10.0,13.0,84,0.00,,,0.00,Wunderground v.1.15,2013-07-23 11:00:00,
2013-07-23 06:05:00,68.0,63.3,29.88,North,352,10.0,13.0,85,0.00,,,0.00,Wunderground v.1.15,2013-07-23 11:05:00,
2013-07-23 06:15:00,67.7,63.4,29.88,NNE,30,10.0,11.0,86,0.00,,,0.00,Wunderground v.1.15,2013-07-23 11:15:00,
2013-07-23 06:25:00,67.5,62.8,29.89,NNW,336,8.0,14.0,85,0.00,,,0.00,Wunderground v.1.15,2013-07-23 11:25:00,
2013-07-23 06:35:00,67.5,62.8,29.91,West,278,6.0,7.0,85,0.00,,,0.00,Wunderground v.1.15,2013-07-23 11:35:00,
2013-07-23 06:45:00,67.1,62.8,29.92,West,270,6.0,6.0,86,0.00,,,0.00,Wunderground v.1.15,2013-07-23 11:45:00,
2013-07-23 06:55:00,66.9,62.6,29.92,WNW,287,5.0,7.0,86,0.00,,,0.00,Wunderground v.1.15,2013-07-23 11:55:00,
2013-07-23 07:00:00,66.9,62.2,29.93,NW,311,5.0,6.0,85,0.00,,,0.00,Wunderground v.1.15,2013-07-23 12:00:00,
2013-07-23 07:05:00,66.9,62.2,29.94,NW,307,5.0,6.0,85,0.00,,,0.00,Wunderground v.1.15,2013-07-23 12:05:00,
2013-07-23 07:15:00,66.6,62.3,29.96,West,280,4.0,4.0,86,0.00,,,0.00,Wunderground v.1.15,2013-07-23 12:15:00,
2013-07-23 07:20:00,66.4,62.4,29.96,SW,229,4.0,4.0,87,0.00,,,0.00,Wunderground v.1.15,2013-07-23 12:20:00,
2013-07-23 07:30:00,65.8,62.5,29.94,NE,43,3.0,4.0,89,0.53,,,0.12,Wunderground v.1.15,2013-07-23 12:30:00,
2013-07-23 07:40:00,64.2,62.7,29.92,NE,49,5.0,5.0,95,0.09,,,0.14,Wunderground v.1.15,2013-07-23 12:40:00,
2013-07-23 07:50:00,63.7,62.5,29.89,NE,43,4.0,4.0,96,0.22,,,0.18,Wunderground v.1.15,2013-07-23 12:50:00,
2013-07-23 08:00:00,63.7,62.5,29.87,ENE,61,8.0,8.0,96,0.09,,,0.19,Wunderground v.1.15,2013-07-23 13:00:00,
2013-07-23 08:10:00,63.7,62.5,29.85,NNE,27,8.0,8.0,96,0.04,,,0.19,Wunderground v.1.15,2013-07-23 13:10:00,
2013-07-23 08:20:00,63.8,62.6,29.85,ENE,61,6.0,6.0,96,0.00,,,0.19,Wunderground v.1.15,2013-07-23 13:20:00,
2013-07-23 08:25:00,63.9,62.7,29.84,SE,137,5.0,6.0,96,0.00,,,0.20,Wunderground v.1.15,2013-07-23 13:25:00,
2013-07-23 08:35:00,63.9,62.7,29.82,ENE,65,7.0,10.0,96,0.00,,,0.20,Wunderground v.1.15,2013-07-23 13:35:00,
2013-07-23 08:45:00,64.4,63.2,29.81,East,82,5.0,8.0,96,0.00,,,0.20,Wunderground v.1.15,2013-07-23 13:45:00,
2013-07-23 08:55:00,64.7,63.5,29.81,SE,132,6.0,7.0,96,0.00,,,0.20,Wunderground v.1.15,2013-07-23 13:55:00,
2013-07-23 09:00:00,64.9,63.7,29.81,SSE,150,6.0,6.0,96,0.00,,,0.20,Wunderground v.1.15,2013-07-23 14:00:00,
2013-07-23 09:05:00,65.1,63.9,29.80,ESE,115,6.0,6.0,96,0.00,,,0.20,Wunderground v.1.15,2013-07-23 14:05:00,
2013-07-23 09:15:00,65.8,64.6,29.80,SSE,162,3.0,5.0,96,0.00,,,0.20,Wunderground v.1.15,2013-07-23 14:15:00,
2013-07-23 09:25:00,66.3,65.1,29.81,SSE,152,3.0,4.0,96,0.00,,,0.20,Wunderground v.1.15,2013-07-23 14:25:00,
2013-07-23 09:35:00,66.7,65.2,29.80,SE,139,4.0,4.0,95,0.00,,,0.20,Wunderground v.1.15,2013-07-23 14:35:00,
2013-07-23 09:45:00,67.5,66.0,29.79,SE,143,3.0,4.0,95,0.00,,,0.20,Wunderground v.1.15,2013-07-23 14:45:00,
2013-07-23 09:55:00,68.3,65.9,29.80,NE,38,4.0,5.0,92,0.00,,,0.20,Wunderground v.1.15,2013-07-23 14:55:00,
2013-07-23 10:00:00,68.7,66.0,29.81,NW,316,7.0,8.0,91,0.00,,,0.20,Wunderground v.1.15,2013-07-23 15:00:00,
2013-07-23 10:10:00,69.3,65.9,29.83,North,4,7.0,10.0,89,0.00,,,0.20,Wunderground v.1.15,2013-07-23 15:10:00,
2013-07-23 10:20:00,69.7,65.3,29.84,NNE,23,10.0,10.0,86,0.00,,,0.20,Wunderground v.1.15,2013-07-23 15:20:00,
2013-07-23 10:30:00,70.7,66.3,29.85,NE,37,10.0,10.0,86,0.00,,,0.20,Wunderground v.1.15,2013-07-23 15:30:00,
2013-07-23 10:40:00,69.8,64.7,29.85,NE,51,11.0,11.0,84,0.00,,,0.20,Wunderground v.1.15,2013-07-23 15:40:00,
2013-07-23 10:45:00,69.5,64.8,29.85,ENE,58,12.0,12.0,85,0.00,,,0.20,Wunderground v.1.15,2013-07-23 15:45:00,
2013-07-23 10:55:00,69.5,64.1,29.85,NE,48,12.0,15.0,83,0.00,,,0.20,Wunderground v.1.15,2013-07-23 15:55:00,
2013-07-23 11:00:00,69.8,64.1,29.85,NE,48,12.0,12.0,82,0.00,,,0.20,Wunderground v.1.15,2013-07-23 16:00:00,
2013-07-23 11:10:00,71.0,63.4,29.85,ENE,68,10.0,10.0,77,0.00,,,0.20,Wunderground v.1.15,2013-07-23 16:10:00,
2013-07-23 11:20:00,72.2,64.2,29.85,NNE,21,9.0,9.0,76,0.00,,,0.20,Wunderground v.1.15,2013-07-23 16:20:00,
2013-07-23 11:30:00,73.3,64.5,29.87,NNE,15,8.0,8.0,74,0.00,,,0.20,Wunderground v.1.15,2013-07-23 16:30:00,
2013-07-23 11:40:00,73.7,64.1,29.89,NE,46,5.0,5.0,72,0.00,,,0.20,Wunderground v.1.15,2013-07-23 16:40:00,
2013-07-23 11:50:00,74.0,64.4,29.88,NE,46,6.0,7.0,72,0.00,,,0.20,Wunderground v.1.15,2013-07-23 16:50:00,
2013-07-23 12:00:00,74.5,64.1,29.88,SE,139,6.0,6.0,70,0.00,,,0.20,Wunderground v.1.15,2013-07-23 17:00:00,
2013-07-23 12:10:00,75.1,64.6,29.88,NE,51,5.0,5.0,70,0.00,,,0.20,Wunderground v.1.15,2013-07-23 17:10:00,
2013-07-23 12:20:00,75.3,64.8,29.88,West,277,4.0,4.0,70,0.00,,,0.20,Wunderground v.1.15,2013-07-23 17:20:00,
2013-07-23 12:30:00,75.2,65.1,29.87,East,90,3.0,4.0,71,0.00,,,0.20,Wunderground v.1.15,2013-07-23 17:30:00,
2013-07-23 12:40:00,75.3,65.6,29.88,NNE,13,4.0,4.0,72,0.00,,,0.20,Wunderground v.1.15,2013-07-23 17:40:00,
2013-07-23 12:55:00,75.1,64.6,29.89,ENE,62,3.0,3.0,70,0.00,,,0.20,Wunderground v.1.15,2013-07-23 17:55:00,
2013-07-23 13:00:00,75.1,65.1,29.88,NE,47,2.0,5.0,71,0.00,,,0.20,Wunderground v.1.15,2013-07-23 18:00:00,
2013-07-23 13:10:00,74.6,64.6,29.89,North,11,6.0,6.0,71,0.00,,,0.20,Wunderground v.1.15,2013-07-23 18:10:00,
2013-07-23 13:15:00,75.0,65.0,29.89,NNE,21,5.0,7.0,71,0.00,,,0.20,Wunderground v.1.15,2013-07-23 18:15:00,
2013-07-23 13:20:00,75.4,65.3,29.89,NNE,30,6.0,7.0,71,0.00,,,0.20,Wunderground v.1.15,2013-07-23 18:20:00,
2013-07-23 13:30:00,76.1,64.8,29.88,NE,51,5.0,5.0,68,0.00,,,0.20,Wunderground v.1.15,2013-07-23 18:30:00,
2013-07-23 13:40:00,76.3,64.1,29.88,ENE,58,5.0,8.0,66,0.00,,,0.20,Wunderground v.1.15,2013-07-23 18:40:00,
2013-07-23 13:45:00,75.6,64.3,29.88,NE,44,7.0,8.0,68,0.00,,,0.20,Wunderground v.1.15,2013-07-23 18:45:00,
2013-07-23 13:55:00,76.7,65.3,29.86,South,170,6.0,7.0,68,0.00,,,0.20,Wunderground v.1.15,2013-07-23 18:55:00,
2013-07-23 14:15:00,77.8,66.0,29.86,NNE,20,5.0,6.0,67,0.00,,,0.20,Wunderground v.1.15,2013-07-23 19:15:00,
2013-07-23 14:20:00,78.6,66.3,29.86,South,169,4.0,4.0,66,0.00,,,0.20,Wunderground v.1.15,2013-07-23 19:20:00,
2013-07-23 14:30:00,79.2,65.1,29.87,East,92,5.0,5.0,62,0.00,,,0.20,Wunderground v.1.15,2013-07-23 19:30:00,
2013-07-23 14:40:00,78.9,64.8,29.87,NE,45,6.0,6.0,62,0.00,,,0.20,Wunderground v.1.15,2013-07-23 19:40:00,
2013-07-23 14:45:00,79.0,65.8,29.88,NE,37,5.0,7.0,64,0.00,,,0.20,Wunderground v.1.15,2013-07-23 19:45:00,
2013-07-23 14:55:00,79.1,65.4,29.88,ENE,65,8.0,8.0,63,0.00,,,0.20,Wunderground v.1.15,2013-07-23 19:55:00,
2013-07-23 15:05:00,79.2,65.1,29.88,NNE,30,6.0,8.0,62,0.00,,,0.20,Wunderground v.1.15,2013-07-23 20:05:00,
2013-07-23 15:15:00,79.6,65.9,29.89,ENE,57,5.0,6.0,63,0.00,,,0.20,Wunderground v.1.15,2013-07-23 20:15:00,
2013-07-23 15:20:00,79.7,66.0,29.89,NNE,18,5.0,7.0,63,0.00,,,0.20,Wunderground v.1.15,2013-07-23 20:20:00,
2013-07-23 15:30:00,79.7,65.1,29.89,North,359,6.0,6.0,61,0.00,,,0.20,Wunderground v.1.15,2013-07-23 20:30:00,
2013-07-23 15:35:00,79.7,66.4,29.88,North,10,6.0,6.0,64,0.00,,,0.20,Wunderground v.1.15,2013-07-23 20:35:00,
2013-07-23 15:45:00,79.9,66.2,29.89,SE,129,4.0,4.0,63,0.00,,,0.20,Wunderground v.1.15,2013-07-23 20:45:00,
2013-07-23 15:55:00,80.5,66.3,29.88,NE,37,3.0,3.0,62,0.00,,,0.20,Wunderground v.1.15,2013-07-23 20:55:00,
2013-07-23 16:00:00,80.3,66.6,29.88,ENE,61,5.0,10.0,63,0.00,,,0.20,Wunderground v.1.15,2013-07-23 21:00:00,
2013-07-23 16:15:00,79.9,65.7,29.88,NNE,20,7.0,7.0,62,0.00,,,0.20,Wunderground v.1.15,2013-07-23 21:15:00,
2013-07-23 16:20:00,79.9,65.7,29.88,NE,50,8.0,8.0,62,0.00,,,0.20,Wunderground v.1.15,2013-07-23 21:20:00,
2013-07-23 16:30:00,80.3,66.1,29.88,NNE,15,7.0,7.0,62,0.00,,,0.20,Wunderground v.1.15,2013-07-23 21:30:00,
2013-07-23 16:40:00,80.1,65.9,29.89,North,350,5.0,6.0,62,0.00,,,0.20,Wunderground v.1.15,2013-07-23 21:40:00,
2013-07-23 17:05:00,80.6,65.9,29.88,NE,51,4.0,7.0,61,0.00,,,0.20,Wunderground v.1.15,2013-07-23 22:05:00,
2013-07-23 17:15:00,80.8,66.1,29.88,NE,48,5.0,6.0,61,0.00,,,0.20,Wunderground v.1.15,2013-07-23 22:15:00,
2013-07-23 17:25:00,81.1,65.9,29.88,NE,44,5.0,8.0,60,0.00,,,0.20,Wunderground v.1.15,2013-07-23 22:25:00,
2013-07-23 17:40:00,80.7,66.0,29.88,NNE,18,5.0,5.0,61,0.00,,,0.20,Wunderground v.1.15,2013-07-23 22:40:00,
2013-07-23 17:45:00,80.8,66.1,29.88,North,356,5.0,5.0,61,0.00,,,0.20,Wunderground v.1.15,2013-07-23 22:45:00,
2013-07-23 18:05:00,80.5,65.3,29.87,NNW,339,6.0,6.0,60,0.00,,,0.20,Wunderground v.1.15,2013-07-23 23:05:00,
2013-07-23 18:15:00,80.3,65.1,29.88,North,1,6.0,7.0,60,0.00,,,0.20,Wunderground v.1.15,2013-07-23 23:15:00,
2013-07-23 18:20:00,80.5,65.3,29.88,NE,43,6.0,6.0,60,0.00,,,0.20,Wunderground v.1.15,2013-07-23 23:20:00,
2013-07-23 18:35:00,80.4,65.7,29.87,NNE,23,5.0,7.0,61,0.00,,,0.20,Wunderground v.1.15,2013-07-23 23:35:00,
2013-07-23 18:40:00,80.2,66.0,29.87,North,349,6.0,7.0,62,0.00,,,0.20,Wunderground v.1.15,2013-07-23 23:40:00,
2013-07-23 18:50:00,80.1,65.4,29.87,NE,43,7.0,8.0,61,0.00,,,0.20,Wunderground v.1.15,2013-07-23 23:50:00,
2013-07-23 19:05:00,79.6,65.0,29.87,NNE,12,8.0,8.0,61,0.00,,,0.20,Wunderground v.1.15,2013-07-24 00:05:00,
2013-07-23 19:15:00,79.4,65.2,29.87,NE,34,6.0,7.0,62,0.00,,,0.20,Wunderground v.1.15,2013-07-24 00:15:00,
2013-07-23 19:25:00,79.2,64.6,29.87,NNE,15,6.0,6.0,61,0.00,,,0.20,Wunderground v.1.15,2013-07-24 00:25:00,
2013-07-23 19:30:00,79.0,64.9,29.87,NE,38,5.0,6.0,62,0.00,,,0.20,Wunderground v.1.15,2013-07-24 00:30:00,
2013-07-23 19:40:00,78.6,65.8,29.87,NE,44,5.0,6.0,65,0.00,,,0.20,Wunderground v.1.15,2013-07-24 00:40:00,
2013-07-23 19:50:00,78.3,65.6,29.88,NE,35,5.0,5.0,65,0.00,,,0.20,Wunderground v.1.15,2013-07-24 00:50:00,
2013-07-23 20:00:00,77.8,66.0,29.88,NE,52,5.0,5.0,67,0.00,,,0.20,Wunderground v.1.15,2013-07-24 01:00:00,
2013-07-23 20:10:00,77.1,66.1,29.88,NNE,30,4.0,4.0,69,0.00,,,0.20,Wunderground v.1.15,2013-07-24 01:10:00,
2013-07-23 20:15:00,76.6,66.1,29.88,NNE,23,5.0,5.0,70,0.00,,,0.20,Wunderground v.1.15,2013-07-24 01:15:00,
2013-07-23 20:20:00,76.0,66.3,29.88,NNE,22,5.0,5.0,72,0.00,,,0.20,Wunderground v.1.15,2013-07-24 01:20:00,
2013-07-23 20:30:00,75.3,66.0,29.88,NE,34,5.0,5.0,73,0.00,,,0.20,Wunderground v.1.15,2013-07-24 01:30:00,
2013-07-23 20:35:00,74.9,66.1,29.88,NNE,18,5.0,5.0,74,0.00,,,0.20,Wunderground v.1.15,2013-07-24 01:35:00,
2013-07-23 20:45:00,74.3,66.2,29.88,NNE,27,5.0,5.0,76,0.00,,,0.20,Wunderground v.1.15,2013-07-24 01:45:00,
2013-07-23 20:50:00,73.7,66.0,29.88,NE,45,4.0,4.0,77,0.00,,,0.20,Wunderground v.1.15,2013-07-24 01:50:00,
2013-07-23 21:05:00,73.0,65.7,29.89,NE,37,4.0,4.0,78,0.00,,,0.20,Wunderground v.1.15,2013-07-24 02:05:00,
2013-07-23 21:15:00,72.7,65.1,29.89,NNE,20,3.0,3.0,77,0.00,,,0.20,Wunderground v.1.15,2013-07-24 02:15:00,
2013-07-23 21:25:00,72.6,65.0,29.90,NNE,21,4.0,4.0,77,0.00,,,0.20,Wunderground v.1.15,2013-07-24 02:25:00,
2013-07-23 21:35:00,72.3,65.1,29.90,NE,41,3.0,4.0,78,0.00,,,0.20,Wunderground v.1.15,2013-07-24 02:35:00,
2013-07-23 21:45:00,71.5,65.0,29.91,North,5,1.0,2.0,80,0.00,,,0.20,Wunderground v.1.15,2013-07-24 02:45:00,
2013-07-23 21:50:00,71.2,64.7,29.91,North,9,1.0,2.0,80,0.00,,,0.20,Wunderground v.1.15,2013-07-24 02:50:00,
2013-07-23 22:05:00,70.7,64.2,29.91,NNW,342,3.0,3.0,80,0.00,,,0.20,Wunderground v.1.15,2013-07-24 03:05:00,
2013-07-23 22:15:00,69.9,64.2,29.91,NE,37,2.0,3.0,82,0.00,,,0.20,Wunderground v.1.15,2013-07-24 03:15:00,
2013-07-23 22:25:00,69.7,64.0,29.91,North,359,3.0,3.0,82,0.00,,,0.20,Wunderground v.1.15,2013-07-24 03:25:00,
2013-07-23 22:35:00,69.6,63.9,29.91,NNE,27,4.0,5.0,82,0.00,,,0.20,Wunderground v.1.15,2013-07-24 03:35:00,
2013-07-23 22:45:00,69.2,63.5,29.91,NE,37,5.0,5.0,82,0.00,,,0.20,Wunderground v.1.15,2013-07-24 03:45:00,
2013-07-23 22:55:00,68.7,63.0,29.92,NE,43,4.0,4.0,82,0.00,,,0.20,Wunderground v.1.15,2013-07-24 03:55:00,
2013-07-23 23:00:00,68.8,63.1,29.92,NE,34,4.0,4.0,82,0.00,,,0.20,Wunderground v.1.15,2013-07-24 04:00:00,
2013-07-23 23:05:00,68.9,62.8,29.91,NNE,26,4.0,5.0,81,0.00,,,0.20,Wunderground v.1.15,2013-07-24 04:05:00,
2013-07-23 23:10:00,69.1,63.0,29.91,NE,45,5.0,6.0,81,0.00,,,0.20,Wunderground v.1.15,2013-07-24 04:10:00,
2013-07-23 23:15:00,68.9,62.8,29.91,NNE,30,5.0,6.0,81,0.00,,,0.20,Wunderground v.1.15,2013-07-24 04:15:00,
2013-07-23 23:25:00,68.2,62.5,29.92,North,11,4.0,5.0,82,0.00,,,0.20,Wunderground v.1.15,2013-07-24 04:25:00,
2013-07-23 23:30:00,68.0,62.6,29.92,NNE,12,3.0,3.0,83,0.00,,,0.20,Wunderground v.1.15,2013-07-24 04:30:00,
2013-07-23 23:35:00,67.9,62.5,29.93,NNE,21,3.0,3.0,83,0.00,,,0.20,Wunderground v.1.15,2013-07-24 04:35:00,
2013-07-23 23:45:00,67.7,62.0,29.93,NE,40,4.0,4.0,82,0.00,,,0.20,Wunderground v.1.15,2013-07-24 04:45:00,
2013-07-23 23:55:00,67.6,61.9,29.92,NE,50,6.0,6.0,82,0.00,,,0.20,Wunderground v.1.15,2013-07-24 04:55:00,